Location: Clermont
(50.2608°N, 4.3172°E)
Time: 22:22:31
(UTC+00:00)

USA 234 - Pass Details

Date: 13 August 2020
Orbit: 1101 x 1107 km, 123.0° (Epoch: 22 September)

Event Time Altitude Azimuth Distance (km) Brightness Sun altitude
Exits shadow 20:10:45 - 101° (E) 3,097 5.1 -9.9°
Reaches altitude 10° 20:11:07 10° 101° (E) 2,958 5.0 -10.0°
Maximum altitude 20:17:34 66° 21° (NNE) 1,197 3.6 -10.8°
Drops below altitude 10° 20:24:03 10° 301° (WNW) 2,968 7.0 -11.6°
Sets 20:26:33 0° 299° (WNW) 3,928 8.0 -11.9°
